Regional Weather Roundup
Issued by NWS

Home | Current Version | Previous Version | Text Only | Print | Product List | Glossary Off
Versions: 1 2 3 4 5 6 7 8 9 10 11 12 13 14 15 16 17 18 19 20 21 22 23 24 25 26 27 28 29 30 31 32 33 34 35 36 37 38 39 40 41 42 43 44 45 46 47 48 49 50

649
ASUS43 KMKX 271811
RWRWI

WISCONSIN REGIONAL WEATHER ROUNDUP
NATIONAL WEATHER SERVICE MILWAUKEE/SULLIVAN WI
100 PM CDT SAT MAY 27 2017

NOTE: "FAIR" INDICATES FEW OR NO CLOUDS BELOW 12,000 FEET WITH NO
SIGNIFICANT WEATHER AND/OR OBSTRUCTIONS TO VISIBILITY.

WIZ001-002-006>008-014>016-023>028-271900-
NORTHWEST WISCONSIN

CITY           SKY/WX    TMP DP  RH WIND       PRES   REMARKS
SUPERIOR ARPT  NOT AVBL
ASHLAND        PTSUNNY   72  47  40 SW8G21    29.86R
6HR MIN TEMP:  56; 6HR MAX TEMP:  72;

HAYWARD        CLOUDY    68  44  42 VRB3      29.88R
6HR MIN TEMP:  52; 6HR MAX TEMP:  70;

SIREN          CLOUDY    69  40  35 CALM      29.89S
6HR MIN TEMP:  53; 6HR MAX TEMP:  70;

CUMBERLAND     CLOUDY    68  43  40 W5        29.89S
RICE LAKE      CLOUDY    69  44  39 SW7       29.90F
6HR MIN TEMP:  51; 6HR MAX TEMP:  70;

CHETEK         CLOUDY    71  48  45 W6        29.90S
6HR MIN TEMP:  52; 6HR MAX TEMP:  71;

LADYSMITH      PTSUNNY   69  46  44 W7        29.90S
6HR MIN TEMP:  53; 6HR MAX TEMP:  70;

EAU CLAIRE     MOSUNNY   70  45  40 W9        29.89S
6HR MIN TEMP:  57; 6HR MAX TEMP:  72;

MENOMONIE      CLOUDY    71  47  43 W12       29.91R
6HR MIN TEMP:  56; 6HR MAX TEMP:  71;

NEW RICHMOND   CLOUDY    68  44  41 W9        29.93R
6HR MIN TEMP:  55; 6HR MAX TEMP:  71;

OSCEOLA        PTSUNNY   70  43  36 W9        29.94R
6HR MIN TEMP:  51; 6HR MAX TEMP:  71;

$$

WIZ003>005-009-010-017-018-271900-
NORTH CENTRAL WISCONSIN

CITY           SKY/WX    TMP DP  RH WIND       PRES   REMARKS
MANITOWISH WTR MOSUNNY   69  48  46 SW10      29.85S
6HR MIN TEMP:  55; 6HR MAX TEMP:  71;

ARBOR VITAE    MOSUNNY   72  47  40 W10G17    29.85S
6HR MIN TEMP:  57; 6HR MAX TEMP:  73;

WOODRUFF       MOSUNNY   72  47  40 W10G17    29.85S
6HR MIN TEMP:  57; 6HR MAX TEMP:  73;

RHINELANDER    MOSUNNY   74  48  39 S12       29.87R
6HR MIN TEMP:  57; 6HR MAX TEMP:  75;

EAGLE RIVER    MOSUNNY   73  44  35 W12       29.85S
6HR MIN TEMP:  57; 6HR MAX TEMP:  73;

LAND O LAKES   MOSUNNY   72  42  33 W6        29.87R
6HR MIN TEMP:  57; 6HR MAX TEMP:  74;

PHILLIPS       CLOUDY    69  47  46 W6        29.87S
6HR MIN TEMP:  54; 6HR MAX TEMP:  70;

TOMAHAWK       MOSUNNY   71  47  41 W7        29.88S
6HR MIN TEMP:  56; 6HR MAX TEMP:  72;

MEDFORD        MOSUNNY   70  48  45 W9G16     29.88S
6HR MIN TEMP:  55; 6HR MAX TEMP:  70;

MERRILL        MOSUNNY   72  49  45 W6        29.88R
6HR MIN TEMP:  54; 6HR MAX TEMP:  73;

$$

WIZ029-030-035-036-043>047-271900-
CENTRAL WISCONSIN

CITY           SKY/WX    TMP DP  RH WIND       PRES   REMARKS
WAUSAU         MOSUNNY   73  49  42 W15       29.86S
6HR MIN TEMP:  56; 6HR MAX TEMP:  73;

MOSINEE        MOSUNNY   73  52  46 SW10G17   29.89S
MARSHFIELD     MOSUNNY   72  49  44 W9        29.87F
6HR MIN TEMP:  55; 6HR MAX TEMP:  73;

STEVENS POINT  MOSUNNY   72  49  43 W7        29.88F
6HR MIN TEMP:  55; 6HR MAX TEMP:  73;

WAUPACA        PTSUNNY   76  58  52 S10       29.88S
6HR MIN TEMP:  55; 6HR MAX TEMP:  77;

WAUTOMA        MOSUNNY   75  60  59 S9        29.88F
6HR MIN TEMP:  52; 6HR MAX TEMP:  75;

WISC RAPIDS    PTSUNNY   77  52  41 SW9       29.88F
6HR MIN TEMP:  56; 6HR MAX TEMP:  77;

CAMP DOUGLAS   PTSUNNY   75  54  48 W10       29.88F
6HR MIN TEMP:  56; 6HR MAX TEMP:  76;

$$

WIZ011>013-019>022-031-037>040-048>050-271900-
NORTHEAST WISCONSIN

CITY           SKY/WX    TMP DP  RH WIND       PRES   REMARKS
ANTIGO         MOSUNNY   72  53  50 W12G20    29.88S
6HR MIN TEMP:  56; 6HR MAX TEMP:  72;

SHAWANO        PTSUNNY   75  57  52 SE8       29.87S
6HR MIN TEMP:  56; 6HR MAX TEMP:  76;

OCONTO         MOSUNNY   74  54  48 S13       29.86S
6HR MIN TEMP:  55; 6HR MAX TEMP:  75;

STURGEON BAY   SUNNY     71  54  54 S16       29.89S
6HR MIN TEMP:  56; 6HR MAX TEMP:  72;

GREEN BAY      MOSUNNY   72  56  57 S15       29.88F
6HR MIN TEMP:  55; 6HR MAX TEMP:  73;

MANITOWOC      SUNNY     69  53  56 SE14      29.91S
6HR MIN TEMP:  53; 6HR MAX TEMP:  69;

APPLETON       MOSUNNY   72  52  49 S13       29.88F
CLINTONVILLE   PTSUNNY   73  55  53 SW9G16    29.87S
OSHKOSH        MOSUNNY   73  56  54 S13G18    29.89S
6HR MIN TEMP:  57; 6HR MAX TEMP:  73;

$$

WIZ032>034-041-042-053>061-271900-
SOUTHWEST WISCONSIN

CITY           SKY/WX    TMP DP  RH WIND       PRES   REMARKS
LA CROSSE      PTSUNNY   74  55  51 S5        29.89S
6HR MIN TEMP:  60; 6HR MAX TEMP:  75;

SPARTA         CLOUDY    73  47  38 W8        29.90S
6HR MIN TEMP:  51; 6HR MAX TEMP:  74;

VIROQUA        PTSUNNY   72  51  47 SW6       29.92S
6HR MIN TEMP:  58; 6HR MAX TEMP:  72;

BOSCOBEL       CLOUDY    72  60  66 CALM      29.92S
6HR MIN TEMP:  54; 6HR MAX TEMP:  73;

PRAIRIE DU CHI CLOUDY    70  58  63 S3        29.91F
6HR MIN TEMP:  55; 6HR MAX TEMP:  71;

PLATTEVILLE    PTSUNNY   68  63  82 SW6       29.93F
6HR MIN TEMP:  54; 6HR MAX TEMP:  68;

$$

WIZ056-057-062-063-064-067-068-271900-
SOUTH CENTRAL WISCONSIN

CITY           SKY/WX    TMP DP  RH WIND       PRES   REMARKS
REEDSBURG      SUNNY     69  62  78 S7        29.91S
6HR MIN TEMP:  53; 6HR MAX TEMP:  69;

BARABOO/DELLS  MOSUNNY   69  59  70 SW6       29.91S
6HR MIN TEMP:  54; 6HR MAX TEMP:  69;

LONE ROCK      MOSUNNY   69  59  70 SW5       29.91F
6HR MIN TEMP:  52; 6HR MAX TEMP:  69;

MINERAL POINT  CLOUDY    70  63  78 SW8       29.93S
MADISON        PTSUNNY   70  58  65 VRB6      29.91S
6HR MIN TEMP:  50; 6HR MAX TEMP:  71;

MIDDLETON      CLOUDY    73  60  64 SW7       29.92S
6HR MIN TEMP:  53; 6HR MAX TEMP:  73;

WATERTOWN      PTSUNNY   70  58  65 SW8       29.91S
6HR MIN TEMP:  50; 6HR MAX TEMP:  71;

MONROE         CLOUDY    70  57  64 SW8       29.93S
JANESVILLE     MOSUNNY   72  57  60 W9        29.91F
$$

WIZ051-052-058>065-066-070>072-271900-
SOUTHEAST WISCONSIN

CITY           SKY/WX    TMP DP  RH WIND       PRES   REMARKS
MILWAUKEE      MOSUNNY   70  56  61 E12       29.91F
6HR MIN TEMP:  59; 6HR MAX TEMP:  71;

WAUKESHA       PTSUNNY   68  55  64 S5        29.93S
MILWAUKEE/TIMM MOSUNNY   72  52  49 S9        29.91S
RACINE         SUNNY     70  53  54 SE7       29.93F
6HR MIN TEMP:  55; 6HR MAX TEMP:  70;

KENOSHA        SUNNY     70  56  61 S3        29.91F
6HR MIN TEMP:  54; 6HR MAX TEMP:  70;

FOND DU LAC    MOSUNNY   73  54  51 SW10      29.90F
6HR MIN TEMP:  60; 6HR MAX TEMP:  73;

SHEBOYGAN      SUNNY     71  56  58 S10       29.90S
6HR MIN TEMP:  53; 6HR MAX TEMP:  71;

WEST BEND      CLOUDY    70  57  64 W6        29.91S
JUNEAU         MOSUNNY   70  57  63 SW9       29.92S
6HR MIN TEMP:  52; 6HR MAX TEMP:  70;

$$

LSZ147-162-271900-
LAKE SUPERIOR

STATION/POSITION TIME  TEMP    WIND        PRES    WAVE
                       AIR SEA DIR/SP/G            HT/PER
                 (UTC) (F)     (DEG/KT/KT) (MB)    (FT/S)
W MID LAKE BUOY  1750   43 38  230/  8/  8 1010.5S   1
DEVILS ISLAND    1800   59     210/  7/ 10 1010.5R
SAXON HARBOR     1730   66      70/  7/  7 1010.5S
$$

LMZ867-665-643>646-271900-
LAKE MICHIGAN

STATION/POSITION TIME  TEMP    WIND        PRES    WAVE
                       AIR SEA DIR/SP/G            HT/PER
                 (UTC) (F)     (DEG/KT/KT) (MB)    (FT/S)
CHAMBERS ISLAND  1740   70     190/  7/ 11 1011.2F
N MID LAKE BUOY  1750   45 43  200/  6/  6 1013.5R
NORTHPO



USA.gov is the U.S. government's official web portal to all federal, state and local government web resources and services.